Weather History for KBVE - August, 2013

Change the Weather History Date:

Thursday, August 29, 2013

  Actual Average Record
Temperature  
Mean Temperature 80 °F -  
Max Temperature 87 °F - - ()
Min Temperature 75 °F - - ()
Cooling Degree Days 16    
Growing Degree Days 30 (Base 50)    
Moisture  
Dew Point 70 °F    
Average Humidity 72    
Maximum Humidity 87    
Minimum Humidity 57    
Precipitation  
Precipitation 0.01 in - - ()
Sea Level Pressure  
Sea Level Pressure 30.04 in    
Wind  
Wind Speed 2 mph (East)    
Max Wind Speed 6 mph    
Max Gust Speed -    
Visibility 10 miles    
Events      
T = Trace of Precipitation, MM = Missing Value Source: NWS Daily Summary

Daily Weather History Graph

Daily Weather History Graph

Search for Another Location

Airport or City:

Trip Planner

Search our weather history database for the weather conditions in past years. The results will help you decide how hot, cold, wet, or windy it might be!

Date:

Astronomy

Aug. 29, 2013 Rise Set
Actual Time 6:33 AM CDT 7:22 PM CDT
Civil Twilight 6:09 AM CDT 7:46 PM CDT
Nautical Twilight 5:40 AM CDT 8:15 PM CDT
Astronomical Twilight 5:11 AM CDT 8:44 PM CDT
Moon 12:38 AM CDT (8/29) 2:37 PM CDT (8/29)
Length of Visible Light 13h 37m
Length of Day
12h 48m
Last Quarter, 38% of the Moon is Illuminated
Aug 29
Last Quarter
Sep 5
New
Sep 12
First Quarter
Sep 19
Full
Sep 26
Last Quarter

Hourly Weather History & Observations

Time (CDT) Temp. Heat Index Dew Point Humidity Pressure Visibility Wind Dir Wind Speed Gust Speed Precip Events Conditions
12:51 AM 75.9 °F - 69.1 °F 79% 30.04 in 10.0 mi Calm Calm - N/A   Clear
1:51 AM 75.0 °F - 70.0 °F 84% 30.04 in 10.0 mi Calm Calm - N/A   Clear
2:51 AM 75.0 °F - 71.1 °F 87% 30.04 in 9.0 mi Calm Calm - N/A   Clear
3:51 AM 75.9 °F - 71.1 °F 85% 30.04 in 10.0 mi Calm Calm - N/A   Clear
4:51 AM 75.0 °F - 70.0 °F 84% 30.04 in 10.0 mi Calm Calm - N/A   Clear
5:51 AM 75.0 °F - 71.1 °F 87% 30.05 in 10.0 mi Calm Calm - N/A   Clear
6:51 AM 75.9 °F - 71.1 °F 85% 30.06 in 9.0 mi Calm Calm - N/A   Clear
7:51 AM 80.1 °F 83.8 °F 72.0 °F 76% 30.07 in 9.0 mi Calm Calm - N/A   Clear
8:51 AM 82.0 °F 85.9 °F 70.0 °F 67% 30.08 in 10.0 mi Calm Calm - N/A   Partly Cloudy
9:51 AM 82.9 °F 87.0 °F 70.0 °F 65% 30.09 in 10.0 mi North 4.6 mph - 0.01 in   Clear
10:51 AM 84.0 °F 89.0 °F 71.1 °F 65% 30.09 in 10.0 mi NE 5.8 mph - N/A   Clear
11:51 AM 84.9 °F 88.2 °F 68.0 °F 57% 30.08 in 10.0 mi NNE 5.8 mph - N/A   Clear
12:51 PM 84.9 °F 88.2 °F 68.0 °F 57% 30.07 in 10.0 mi NE 5.8 mph - N/A   Clear
1:51 PM 84.9 °F 88.2 °F 68.0 °F 57% 30.06 in 10.0 mi ENE 4.6 mph - N/A   Clear
2:51 PM 86.0 °F 90.1 °F 69.1 °F 57% 30.03 in 10.0 mi ENE 3.5 mph - N/A   Clear
3:51 PM 84.9 °F 89.4 °F 70.0 °F 61% 30.02 in 10.0 mi Variable 3.5 mph - N/A   Clear
4:51 PM 86.0 °F 90.7 °F 70.0 °F 59% 30.01 in 10.0 mi NE 4.6 mph - N/A   Clear
5:51 PM 84.9 °F 89.4 °F 70.0 °F 61% 30.00 in 10.0 mi East 3.5 mph - N/A   Clear
6:51 PM 82.9 °F 87.0 °F 70.0 °F 65% 30.01 in 10.0 mi East 3.5 mph - N/A   Clear
7:51 PM 81.0 °F 85.2 °F 72.0 °F 74% 30.01 in 10.0 mi ESE 3.5 mph - N/A   Clear
8:51 PM 80.1 °F 83.8 °F 72.0 °F 76% 30.02 in 10.0 mi ESE 3.5 mph - N/A   Clear
9:51 PM 79.0 °F - 72.0 °F 79% 30.03 in 10.0 mi SE 3.5 mph - N/A   Clear
10:51 PM 78.1 °F - 72.0 °F 81% 30.03 in 10.0 mi SE 3.5 mph - N/A   Clear
11:51 PM 79.0 °F - 72.0 °F 79% 30.03 in 10.0 mi ESE 3.5 mph - N/A   Clear